Flag for Germany Weather past 2 weeks in Emmendingen, Baden-Württemberg, Germany

Now
49 °F

Clear.


Feels Like: 48 °F
Forecast: 53 / 72 °F
Wind: 3 mph from West

Location: Lahr

Current Time: May 28, 2015 at 4:22:31 AM

Latest Report: May 28, 2015 at 3:00 AM


Visibility: 14 mi

Pressure: 30.15 "Hg

Humidity: 75%

Dew point: 41 °F

Location of EmmendingenLocation

Historic Weather in Emmendingen — Graph

°F

Emmendingen temperature yesterday

Maximum temperature yesterday: 63 °F (at 6:00 PM)
Minimum temperature yesterday: 46 °F (at 5:00 AM)
Average temperature yesterday: 54 °F

Past Weeks' High & Low Weather Summary

 TemperatureHumidityPressure
High76 °F (May 13, 4:00 PM)100% (May 16, 5:00 AM)30.35 "Hg (May 16, 5:00 AM)
Low39 °F (May 22, 6:00 AM)34% (May 22, 5:00 PM)29.72 "Hg (May 18, 8:00 PM)
Average57 °F72%30.08 "Hg
* Reported May 13 3:00 AM — May 28 3:00 AM, Emmendingen, Weather by CustomWeather, © 2015

Note: Actual official high and low records may vary slightly from our data, if they occured in-between our weather recording intervals... More about our weather records

Advertising

Emmendingen weather history for previous 24 hours

 ConditionsComfort  
Time TempWeatherWind HumidityBarometerVisibility
3:00 AM
Thu, May 28
49 °FClear.3 mph75%30.15 "Hg14 mi
2:00 AM52 °FClear.5 mph67%30.15 "Hg19 mi
1:00 AM48 °FClear.1 mph86%30.18 "Hg8 mi
12:00 AM48 °FPassing clouds.1 mph84%30.19 "Hg9 mi
11:00 PM
Wed, May 27
51 °FPassing clouds.1 mph77%30.19 "Hg13 mi
10:00 PM55 °FPassing clouds.1 mph69%30.19 "Hg19 mi
9:00 PM55 °FPassing clouds.3 mph62%30.19 "Hg37 mi
8:00 PM58 °FScattered clouds.3 mph54%30.19 "Hg34 mi
7:00 PM62 °FPassing clouds.3 mph46%30.19 "Hg34 mi
6:00 PM63 °FScattered clouds.3 mph43%30.19 "Hg34 mi
5:00 PM62 °FPassing clouds.3 mph43%30.21 "Hg34 mi
4:00 PM62 °FPassing clouds.2 mph42%30.22 "Hg34 mi
3:00 PM61 °FPassing clouds.3 mph45%30.24 "Hg34 mi
2:00 PM60 °FScattered clouds.3 mph47%30.25 "Hg34 mi
1:00 PM59 °FPartly sunny.3 mph50%30.26 "Hg31 mi
12:00 PM57 °FPartly sunny.3 mph54%30.27 "Hg25 mi
11:00 AM56 °FOvercast.5 mph59%30.28 "Hg22 mi
10:00 AM55 °FOvercast.1 mph68%30.27 "Hg25 mi
9:00 AM52 °FPartly sunny.1 mph70%30.28 "Hg25 mi
8:00 AM49 °FOvercast.2 mph83%30.27 "Hg25 mi
7:00 AM48 °FOvercast.2 mph86%30.27 "Hg25 mi
6:00 AM48 °FOvercast.1 mph84%30.26 "Hg25 mi
5:00 AM46 °FOvercast.1 mph90%30.25 "Hg11 mi
4:00 AM46 °FPassing clouds.1 mph89%30.25 "Hg13 mi
Weather by CustomWeather, © 2015

See weather overviewHow to use our weather pages